• Em Portugal
  • Lista de países
  • Para 7 dias
  • Temperatura da água
  • Mapas de satélite
  • Mapa do tempo
  • Widgets de tempo
  • user-avatar
    Iniciar Sessão

    Previsão horária em Tappita

    Hoje, 20 Agosto, Segunda-feira

    Tempo Temperatura Precipitação Vento Pressão Humidade
    00:00 +23°C° 0 mm 1 m/s 740 mmHg 98%
    01:00 +23°C° 0 mm 1 m/s 740 mmHg 99%
    02:00 +23°C° 0 mm 1 m/s 739 mmHg 99%
    03:00 +23°C° 0 mm 1 m/s 740 mmHg 99%
    04:00 +23°C° 0 mm 1 m/s 740 mmHg 99%
    05:00 +23°C° 0 mm 1 m/s 740 mmHg 99%
    06:00 +24°C° 0 mm 1 m/s 740 mmHg 97%
    07:00 +24°C° 0 mm 1 m/s 740 mmHg 95%
    08:00 +25°C° 0 mm 2 m/s 741 mmHg 93%
    09:00 +26°C° 0,3 mm 2 m/s 741 mmHg 87%
    10:00 +27°C° 0,3 mm 2 m/s 741 mmHg 81%
    11:00 +29°C° 0,3 mm 2 m/s 740 mmHg 75%
    12:00 +28°C° 0,7 mm 2 m/s 740 mmHg 78%
    13:00 +28°C° 0,7 mm 2 m/s 739 mmHg 81%
    14:00 +28°C° 0,7 mm 2 m/s 739 mmHg 84%
    15:00 +27°C° 0,6 mm 2 m/s 739 mmHg 88%
    16:00 +26°C° 0,6 mm 2 m/s 739 mmHg 91%
    17:00 +26°C° 0,6 mm 1 m/s 739 mmHg 94%
    18:00 +25°C° 0,3 mm 1 m/s 739 mmHg 95%
    19:00 +24°C° 0,3 mm 1 m/s 740 mmHg 96%
    20:00 +24°C° 0,3 mm 1 m/s 740 mmHg 98%
    21:00 +23°C° 0,1 mm 1 m/s 740 mmHg 98%
    22:00 +23°C° 0,1 mm 1 m/s 740 mmHg 98%
    23:00 +23°C° 0,1 mm 1 m/s 741 mmHg 98%

    Amanhã, 21 Agosto, Terça-feira

    Tempo Temperatura Precipitação Vento Pressão Humidade
    00:00 +23°C° 0,1 mm 1 m/s 740 mmHg 98%
    01:00 +23°C° 0,1 mm 1 m/s 740 mmHg 98%
    02:00 +23°C° 0,1 mm 1 m/s 739 mmHg 98%
    03:00 +23°C° 0,1 mm 1 m/s 739 mmHg 98%
    04:00 +23°C° 0,1 mm 1 m/s 740 mmHg 98%
    05:00 +21°C° 0,1 mm 0 m/s 740 mmHg 98%
    06:00 +22°C° 0,1 mm 0 m/s 740 mmHg 97%
    07:00 +24°C° 0,1 mm 1 m/s 740 mmHg 96%
    08:00 +24°C° 0,1 mm 1 m/s 741 mmHg 95%
    09:00 +25°C° 0,3 mm 1 m/s 741 mmHg 92%
    10:00 +26°C° 0,3 mm 1 m/s 741 mmHg 89%
    11:00 +27°C° 0,3 mm 1 m/s 741 mmHg 86%
    12:00 +27°C° 0,8 mm 1 m/s 740 mmHg 88%
    13:00 +27°C° 0,8 mm 2 m/s 739 mmHg 89%
    14:00 +27°C° 0,8 mm 2 m/s 739 mmHg 90%
    15:00 +26°C° 0,4 mm 1 m/s 739 mmHg 91%
    16:00 +26°C° 0,4 mm 1 m/s 738 mmHg 93%
    17:00 +25°C° 0,4 mm 1 m/s 738 mmHg 94%
    18:00 +25°C° 0 mm 1 m/s 739 mmHg 95%
    19:00 +24°C° 0 mm 1 m/s 739 mmHg 97%
    20:00 +24°C° 0 mm 1 m/s 740 mmHg 98%
    21:00 +24°C° 0 mm 1 m/s 740 mmHg 98%
    22:00 +23°C° 0 mm 1 m/s 740 mmHg 99%
    23:00 +23°C° 0 mm 1 m/s 740 mmHg 99%

    Depois de amanhã, 22 Agosto, Quarta-feira

    Tempo Temperatura Precipitação Vento Pressão Humidade
    00:00 +23°C° 0 mm 1 m/s 740 mmHg 99%
    01:00 +23°C° 0 mm 1 m/s 739 mmHg 98%
    02:00 +23°C° 0 mm 1 m/s 739 mmHg 98%
    03:00 +23°C° 0 mm 1 m/s 739 mmHg 98%
    04:00 +23°C° 0 mm 1 m/s 739 mmHg 98%
    05:00 +23°C° 0 mm 1 m/s 739 mmHg 98%
    06:00 +24°C° 0 mm 1 m/s 739 mmHg 95%
    07:00 +25°C° 0 mm 1 m/s 740 mmHg 92%
    08:00 +26°C° 0 mm 1 m/s 740 mmHg 90%
    09:00 +27°C° 0,6 mm 1 m/s 740 mmHg 85%
    10:00 +28°C° 0,6 mm 1 m/s 740 mmHg 81%
    11:00 +29°C° 0,6 mm 1 m/s 740 mmHg 77%
    12:00 +28°C° 1,4 mm 1 m/s 739 mmHg 81%
    13:00 +28°C° 1,4 mm 2 m/s 738 mmHg 84%
    14:00 +28°C° 1,4 mm 2 m/s 737 mmHg 88%
    15:00 +27°C° 1,1 mm 2 m/s 737 mmHg 90%
    16:00 +26°C° 1,1 mm 2 m/s 737 mmHg 92%
    17:00 +26°C° 1,1 mm 2 m/s 737 mmHg 94%
    18:00 +25°C° 0,6 mm 2 m/s 738 mmHg 95%
    19:00 +24°C° 0,6 mm 2 m/s 739 mmHg 97%
    20:00 +24°C° 0,6 mm 1 m/s 740 mmHg 98%
    21:00 +24°C° 0,1 mm 1 m/s 740 mmHg 98%
    22:00 +24°C° 0,1 mm 1 m/s 740 mmHg 98%
    23:00 +24°C° 0,1 mm 1 m/s 740 mmHg 98%

    23 Agosto, Quinta-feira

    Tempo Temperatura Precipitação Vento Pressão Humidade
    00:00 +24°C° 0,1 mm 1 m/s 740 mmHg 98%
    01:00 +24°C° 0,1 mm 1 m/s 739 mmHg 98%
    02:00 +24°C° 0,1 mm 1 m/s 738 mmHg 98%
    03:00 +24°C° 0,3 mm 1 m/s 738 mmHg 98%
    04:00 +23°C° 0,3 mm 1 m/s 738 mmHg 98%
    05:00 +23°C° 0,3 mm 1 m/s 738 mmHg 98%
    06:00 +24°C° 0,2 mm 1 m/s 739 mmHg 97%
    07:00 +24°C° 0,2 mm 1 m/s 739 mmHg 96%
    08:00 +25°C° 0,2 mm 1 m/s 740 mmHg 96%
    09:00 +25°C° 0,5 mm 1 m/s 740 mmHg 93%
    10:00 +26°C° 0,5 mm 1 m/s 740 mmHg 91%
    11:00 +27°C° 0,5 mm 2 m/s 739 mmHg 89%
    12:00 +27°C° 0,9 mm 2 m/s 739 mmHg 89%
    13:00 +27°C° 0,9 mm 2 m/s 738 mmHg 88%
    14:00 +27°C° 0,9 mm 2 m/s 737 mmHg 88%
    15:00 +27°C° 0,6 mm 2 m/s 737 mmHg 90%
    16:00 +26°C° 0,6 mm 2 m/s 737 mmHg 91%
    17:00 +26°C° 0,6 mm 2 m/s 737 mmHg 93%
    18:00 +25°C° 0,1 mm 2 m/s 738 mmHg 94%
    19:00 +25°C° 0,1 mm 1 m/s 738 mmHg 96%
    20:00 +24°C° 0,1 mm 1 m/s 739 mmHg 97%
    21:00 +24°C° 0 mm 1 m/s 739 mmHg 97%
    22:00 +23°C° 0 mm 1 m/s 739 mmHg 98%
    23:00 +23°C° 0 mm 1 m/s 739 mmHg 98%

    24 Agosto, Sexta-feira

    Tempo Temperatura Precipitação Vento Pressão Humidade
    00:00 +23°C° 0,1 mm 1 m/s 739 mmHg 98%
    01:00 +23°C° 0,1 mm 1 m/s 738 mmHg 98%
    02:00 +23°C° 0,1 mm 1 m/s 738 mmHg 98%
    03:00 +23°C° 0,1 mm 1 m/s 738 mmHg 98%
    04:00 +23°C° 0,1 mm 1 m/s 738 mmHg 98%
    05:00 +23°C° 0,1 mm 1 m/s 738 mmHg 98%
    06:00 +24°C° 0 mm 1 m/s 739 mmHg 97%
    07:00 +24°C° 0 mm 1 m/s 739 mmHg 96%
    08:00 +24°C° 0 mm 2 m/s 739 mmHg 95%
    09:00 +25°C° 0,1 mm 2 m/s 739 mmHg 91%
    10:00 +26°C° 0,1 mm 2 m/s 739 mmHg 88%
    11:00 +27°C° 0,1 mm 2 m/s 739 mmHg 84%
    12:00 +27°C° 1,1 mm 2 m/s 738 mmHg 86%
    13:00 +27°C° 1,1 mm 2 m/s 738 mmHg 88%
    14:00 +27°C° 1,1 mm 2 m/s 737 mmHg 90%
    15:00 +26°C° 1 mm 2 m/s 737 mmHg 92%
    16:00 +26°C° 1 mm 2 m/s 737 mmHg 93%
    17:00 +25°C° 1 mm 2 m/s 737 mmHg 95%
    18:00 +24°C° 0,4 mm 2 m/s 738 mmHg 96%
    19:00 +24°C° 0,4 mm 2 m/s 738 mmHg 97%
    20:00 +24°C° 0,4 mm 2 m/s 739 mmHg 97%
    21:00 +24°C° 0,7 mm 1 m/s 739 mmHg 98%
    22:00 +24°C° 0,7 mm 1 m/s 739 mmHg 98%
    23:00 +23°C° 0,7 mm 1 m/s 739 mmHg 98%

    25 Agosto, Sábado

    Tempo Temperatura Precipitação Vento Pressão Humidade
    00:00 +23°C° 0,1 mm 1 m/s 738 mmHg 98%
    01:00 +23°C° 0,1 mm 1 m/s 738 mmHg 98%
    02:00 +23°C° 0,1 mm 1 m/s 737 mmHg 98%
    03:00 +23°C° 0,1 mm 1 m/s 738 mmHg 98%
    04:00 +23°C° 0,1 mm 1 m/s 738 mmHg 98%
    05:00 +23°C° 0,1 mm 1 m/s 738 mmHg 98%
    06:00 +23°C° 0,2 mm 1 m/s 739 mmHg 98%
    07:00 +24°C° 0,2 mm 1 m/s 739 mmHg 98%
    08:00 +24°C° 0,2 mm 1 m/s 739 mmHg 98%
    09:00 +24°C° 0,3 mm 1 m/s 739 mmHg 97%
    10:00 +24°C° 0,3 mm 1 m/s 739 mmHg 96%
    11:00 +25°C° 0,3 mm 2 m/s 739 mmHg 95%
    12:00 +25°C° 0,3 mm 2 m/s 738 mmHg 94%
    13:00 +25°C° 0,3 mm 2 m/s 738 mmHg 94%
    14:00 +25°C° 0,3 mm 2 m/s 737 mmHg 94%
    15:00 +25°C° 0,3 mm 2 m/s 737 mmHg 95%
    16:00 +24°C° 0,3 mm 2 m/s 738 mmHg 96%
    17:00 +24°C° 0,3 mm 1 m/s 738 mmHg 96%
    18:00 +24°C° 0,1 mm 1 m/s 738 mmHg 97%
    19:00 +23°C° 0,1 mm 1 m/s 739 mmHg 97%
    20:00 +23°C° 0,1 mm 1 m/s 739 mmHg 98%
    21:00 +23°C° 0,1 mm 1 m/s 739 mmHg 98%
    22:00 +23°C° 0,1 mm 1 m/s 739 mmHg 98%
    23:00 +23°C° 0,1 mm 1 m/s 739 mmHg 98%
    Mostrar mais